Weather reports worldwide

Advertisment
Tampico/Tamps, Mexico (76548): temperature & dewpoint: 31.07.2020 19:00:00 - 06.08.2020 19:00:00 (CDT)Tampico/Tamps, Mexico (76548): wind speed: 31.07.2020 19:00:00 - 06.08.2020 19:00:00 (CDT)Tampico/Tamps, Mexico (76548): wind direction: 31.07.2020 19:00:00 - 06.08.2020 19:00:00 (CDT)Tampico/Tamps, Mexico (76548): reduced air pressure: 31.07.2020 19:00:00 - 06.08.2020 19:00:00 (CDT)Tampico/Tamps, Mexico (76548): visibility: 31.07.2020 19:00:00 - 06.08.2020 19:00:00 (CDT)
Date & Time tt [°C] td [°C] ff [km/h] ff [kn] dd ppp [hPa] vv [km]
06.08.2020 19:00:00 32,0 24,8 18 10 ESE 1012,3 24
06.08.2020 18:00:00 - - - - - - -
06.08.2020 17:00:00 - - - - - - -
06.08.2020 16:00:00 33,6 24,5 11 6 ESE 1013,8 24
06.08.2020 15:00:00 - - - - - - -
06.08.2020 14:00:00 - - - - - - -
06.08.2020 13:00:00 32,6 25,4 7 4 ESE 1015,4 24
06.08.2020 12:00:00 - - - - - - -
06.08.2020 11:00:00 - - - - - - -
06.08.2020 10:00:00 29,8 25,2 4 2 SW 1016,0 22
06.08.2020 09:00:00 - - - - - - -
06.08.2020 08:00:00 - - - - - - -
06.08.2020 07:00:00 26,2 23,7 7 4 WNW 1014,5 10
06.08.2020 06:00:00 - - - - - - -
06.08.2020 05:00:00 - - - - - - -
06.08.2020 04:00:00 - - - - - - -
06.08.2020 03:00:00 - - - - - - -
06.08.2020 02:00:00 - - - - - - -
06.08.2020 01:00:00 28,4 24,1 11 6 SE 1015,8 10
06.08.2020 00:00:00 - - - - - - -
05.08.2020 23:00:00 - - - - - - -
05.08.2020 22:00:00 29,0 24,1 11 6 ESE 1014,4 10
05.08.2020 21:00:00 - - - - - - -
05.08.2020 20:00:00 - - - - - - -
05.08.2020 19:00:00 31,6 24,6 11 6 SE 1012,1 24
05.08.2020 18:00:00 - - - - - - -
05.08.2020 17:00:00 - - - - - - -
05.08.2020 16:00:00 34,6 22,9 4 2 E 1013,9 24
05.08.2020 15:00:00 - - - - - - -
05.08.2020 14:00:00 - - - - - - -
05.08.2020 13:00:00 32,8 23,6 7 4 ESE 1016,0 24
05.08.2020 12:00:00 - - - - - - -
05.08.2020 11:00:00 - - - - - - -
05.08.2020 10:00:00 28,4 24,1 4 2 SSW 1016,3 22
05.08.2020 09:00:00 - - - - - - -
05.08.2020 08:00:00 - - - - - - -
05.08.2020 07:00:00 26,4 23,9 7 4 SE 1015,4 10
05.08.2020 06:00:00 - - - - - - -
05.08.2020 05:00:00 - - - - - - -
05.08.2020 04:00:00 27,2 24,2 7 4 SE 1015,1 10
05.08.2020 03:00:00 - - - - - - -
05.08.2020 02:00:00 - - - - - - -
05.08.2020 01:00:00 28,2 25,0 4 2 SE 1017,3 10
05.08.2020 00:00:00 - - - - - - -
04.08.2020 23:00:00 - - - - - - -
04.08.2020 22:00:00 28,8 24,2 4 2 SE 1016,2 10
04.08.2020 21:00:00 - - - - - - -
04.08.2020 20:00:00 - - - - - - -
04.08.2020 19:00:00 31,6 24,6 7 4 ESE 1013,5 24
04.08.2020 18:00:00 - - - - - - -
04.08.2020 17:00:00 - - - - - - -
04.08.2020 16:00:00 34,0 23,4 4 2 SE 1014,9 24
04.08.2020 15:00:00 - - - - - - -
04.08.2020 14:00:00 - - - - - - -
04.08.2020 13:00:00 32,4 25,2 4 2 E 1017,0 24
04.08.2020 12:00:00 - - - - - - -
04.08.2020 11:00:00 - - - - - - -
04.08.2020 10:00:00 28,8 23,9 4 2 SSW 1016,9 22
04.08.2020 09:00:00 - - - - - - -
04.08.2020 08:00:00 - - - - - - -
04.08.2020 07:00:00 27,2 24,5 4 2 WSW 1015,7 10
04.08.2020 06:00:00 - - - - - - -
04.08.2020 05:00:00 - - - - - - -
04.08.2020 04:00:00 27,4 24,7 4 2 ESE 1015,5 10
04.08.2020 03:00:00 - - - - - - -
04.08.2020 02:00:00 - - - - - - -
04.08.2020 01:00:00 28,6 24,5 7 4 ESE 1017,3 10
04.08.2020 00:00:00 - - - - - - -
03.08.2020 23:00:00 - - - - - - -
03.08.2020 22:00:00 28,8 24,2 11 6 ESE 1016,5 10
03.08.2020 21:00:00 - - - - - - -
03.08.2020 20:00:00 - - - - - - -
03.08.2020 19:00:00 31,2 24,2 11 6 ESE 1014,5 24
03.08.2020 18:00:00 - - - - - - -
03.08.2020 17:00:00 - - - - - - -
03.08.2020 16:00:00 33,0 22,9 7 4 ESE 1015,8 24
03.08.2020 15:00:00 - - - - - - -
03.08.2020 14:00:00 - - - - - - -
03.08.2020 13:00:00 31,0 23,4 4 2 WNW 1017,9 20
03.08.2020 12:00:00 - - - - - - -
03.08.2020 11:00:00 - - - - - - -
03.08.2020 10:00:00 27,8 23,1 7 4 WSW 1016,5 22
03.08.2020 09:00:00 - - - - - - -
03.08.2020 08:00:00 - - - - - - -
03.08.2020 07:00:00 25,6 22,8 7 4 NW 1015,3 10
03.08.2020 06:00:00 - - - - - - -
03.08.2020 05:00:00 - - - - - - -
03.08.2020 04:00:00 26,4 23,4 7 4 NE 1015,5 10
03.08.2020 03:00:00 - - - - - - -
03.08.2020 02:00:00 - - - - - - -
03.08.2020 01:00:00 27,8 24,3 4 2 NE 1017,2 10
03.08.2020 00:00:00 - - - - - - -
02.08.2020 23:00:00 - - - - - - -
02.08.2020 22:00:00 28,4 24,3 7 4 NE 1015,6 10
02.08.2020 21:00:00 - - - - - - -
02.08.2020 20:00:00 - - - - - - -
02.08.2020 19:00:00 30,4 25,3 11 6 ESE 1014,2 24
02.08.2020 18:00:00 - - - - - - -
02.08.2020 17:00:00 - - - - - - -
02.08.2020 16:00:00 33,4 24,2 7 4 SSE 1014,0 24
02.08.2020 15:00:00 - - - - - - -
02.08.2020 14:00:00 - - - - - - -
02.08.2020 13:00:00 33,0 24,4 4 2 E 1016,0 22
02.08.2020 12:00:00 - - - - - - -
02.08.2020 11:00:00 - - - - - - -
02.08.2020 10:00:00 28,8 24,7 4 2 N 1015,4 22
02.08.2020 09:00:00 - - - - - - -
02.08.2020 08:00:00 - - - - - - -
02.08.2020 07:00:00 26,4 24,5 7 4 ESE 1014,1 10
02.08.2020 06:00:00 - - - - - - -
02.08.2020 05:00:00 - - - - - - -
02.08.2020 04:00:00 - - - - - - -
02.08.2020 03:00:00 - - - - - - -
02.08.2020 02:00:00 - - - - - - -
02.08.2020 01:00:00 - - - - - - -
02.08.2020 00:00:00 - - - - - - -
01.08.2020 23:00:00 - - - - - - -
01.08.2020 22:00:00 29,6 24,5 7 4 ESE 1015,0 10
01.08.2020 21:00:00 - - - - - - -
01.08.2020 20:00:00 - - - - - - -
01.08.2020 19:00:00 32,2 26,1 11 6 E 1012,7 22
01.08.2020 18:00:00 - - - - - - -
01.08.2020 17:00:00 - - - - - - -
01.08.2020 16:00:00 33,4 26,0 14 8 ENE 1013,0 22
01.08.2020 15:00:00 - - - - - - -
01.08.2020 14:00:00 - - - - - - -
01.08.2020 13:00:00 33,2 26,4 7 4 SSE 1016,0 22
01.08.2020 12:00:00 - - - - - - -
01.08.2020 11:00:00 - - - - - - -
01.08.2020 10:00:00 28,6 24,8 0 0 N 1016,4 22
01.08.2020 09:00:00 - - - - - - -
01.08.2020 08:00:00 - - - - - - -
01.08.2020 07:00:00 26,8 24,4 4 2 ESE 1014,8 10
01.08.2020 06:00:00 - - - - - - -
01.08.2020 05:00:00 - - - - - - -
01.08.2020 04:00:00 - - - - - - -
01.08.2020 03:00:00 - - - - - - -
01.08.2020 02:00:00 - - - - - - -
01.08.2020 01:00:00 - - - - - - -
01.08.2020 00:00:00 - - - - - - -
31.07.2020 23:00:00 - - - - - - -
31.07.2020 22:00:00 29,0 25,0 7 4 SE 1014,9 10
31.07.2020 21:00:00 - - - - - - -
31.07.2020 20:00:00 - - - - - - -
31.07.2020 19:00:00 31,4 25,5 14 8 SE 1012,7 22

tt = temperature
td = dewpoint
ff = wind speed
dd = wind direction
ppp = reduced air pressure
vv = visibility

Next stations